When you browse on this site, cookies collect data to enhance your experience and personalize the content and advertising you see.
Visit our Privacy Policy to learn more. By continuing to use the site, you agree to this use of cookies and data.
  • Em Portugal
  • Lista de países
  • Para 7 dias
  • Temperatura da água
  • Mapa do tempo
  • Widgets de tempo
  • user-avatar
    Iniciar Sessão

    Previsão horária em Melbourne

    Hoje, 20 Fevereiro, Quinta-feira

    Tempo Temperatura Precipitação Vento Pressão Humidade
    00:00 +15°C° 0.1 mm 5 m/s 759 mmHg 74%
    01:00 +14°C° 0.1 mm 5 m/s 759 mmHg 74%
    02:00 +14°C° 0 mm 5 m/s 758 mmHg 73%
    03:00 +14°C° 0 mm 5 m/s 758 mmHg 72%
    04:00 +14°C° 0 mm 4 m/s 758 mmHg 73%
    05:00 +14°C° 0 mm 4 m/s 758 mmHg 72%
    06:00 +14°C° 0 mm 4 m/s 759 mmHg 71%
    07:00 +14°C° 0 mm 4 m/s 759 mmHg 70%
    08:00 +15°C° 0 mm 4 m/s 759 mmHg 69%
    09:00 +15°C° 0 mm 4 m/s 760 mmHg 67%
    10:00 +17°C° 0 mm 3 m/s 760 mmHg 67%
    11:00 +17°C° 0 mm 3 m/s 760 mmHg 64%
    12:00 +18°C° 0 mm 4 m/s 760 mmHg 61%
    13:00 +19°C° 0 mm 4 m/s 760 mmHg 59%
    14:00 +19°C° 0 mm 4 m/s 759 mmHg 58%
    15:00 +19°C° 0 mm 4 m/s 759 mmHg 58%
    16:00 +19°C° 0 mm 4 m/s 759 mmHg 57%
    17:00 +18°C° 0 mm 4 m/s 759 mmHg 61%
    18:00 +18°C° 0 mm 4 m/s 760 mmHg 65%
    19:00 +17°C° 0 mm 4 m/s 760 mmHg 68%
    20:00 +17°C° 0 mm 4 m/s 761 mmHg 69%
    21:00 +15°C° 0 mm 4 m/s 761 mmHg 69%
    22:00 +15°C° 0 mm 4 m/s 761 mmHg 70%
    23:00 +15°C° 0 mm 4 m/s 761 mmHg 70%

    Amanhã, 21 Fevereiro, Sexta-feira

    Tempo Temperatura Precipitação Vento Pressão Humidade
    00:00 +15°C° 0 mm 4 m/s 761 mmHg 70%
    01:00 +16°C° 0 mm 3 m/s 761 mmHg 70%
    02:00 +14°C° 0 mm 3 m/s 761 mmHg 73%
    03:00 +14°C° 0 mm 3 m/s 761 mmHg 77%
    04:00 +13°C° 0 mm 3 m/s 761 mmHg 80%
    05:00 +14°C° 0 mm 3 m/s 761 mmHg 79%
    06:00 +14°C° 0 mm 3 m/s 762 mmHg 78%
    07:00 +14°C° 0 mm 3 m/s 762 mmHg 78%
    08:00 +17°C° 0 mm 4 m/s 762 mmHg 70%
    09:00 +18°C° 0 mm 4 m/s 762 mmHg 63%
    10:00 +19°C° 0 mm 4 m/s 763 mmHg 56%
    11:00 +20°C° 0 mm 4 m/s 763 mmHg 55%
    12:00 +21°C° 0 mm 5 m/s 763 mmHg 54%
    13:00 +21°C° 0 mm 5 m/s 762 mmHg 53%
    14:00 +21°C° 0 mm 5 m/s 762 mmHg 52%
    15:00 +21°C° 0 mm 5 m/s 762 mmHg 51%
    16:00 +20°C° 0 mm 5 m/s 762 mmHg 50%
    23:00 +13°C° 0 mm 4 m/s 765 mmHg 68%

    Depois de amanhã, 22 Fevereiro, Sábado

    Tempo Temperatura Precipitação Vento Pressão Humidade
    00:00 +13°C° 0 mm 4 m/s 765 mmHg 68%
    01:00 +13°C° 0 mm 3 m/s 765 mmHg 70%
    02:00 +13°C° 0 mm 3 m/s 764 mmHg 71%
    03:00 +13°C° 0 mm 3 m/s 764 mmHg 72%
    04:00 +12°C° 0 mm 3 m/s 764 mmHg 74%
    05:00 +13°C° 0 mm 2 m/s 764 mmHg 74%
    06:00 +14°C° 0 mm 2 m/s 765 mmHg 74%
    07:00 +14°C° 0 mm 2 m/s 765 mmHg 74%
    08:00 +16°C° 0 mm 2 m/s 765 mmHg 66%
    09:00 +18°C° 0 mm 2 m/s 765 mmHg 59%
    10:00 +20°C° 0 mm 2 m/s 765 mmHg 51%
    11:00 +21°C° 0 mm 2 m/s 764 mmHg 48%
    12:00 +24°C° 0 mm 2 m/s 764 mmHg 45%
    13:00 +25°C° 0 mm 2 m/s 764 mmHg 42%
    14:00 +25°C° 0 mm 3 m/s 763 mmHg 45%
    15:00 +23°C° 0 mm 4 m/s 763 mmHg 48%
    16:00 +23°C° 0 mm 5 m/s 762 mmHg 50%
    17:00 +22°C° 0 mm 4 m/s 763 mmHg 57%
    18:00 +20°C° 0 mm 4 m/s 763 mmHg 63%
    19:00 +19°C° 0 mm 3 m/s 763 mmHg 69%
    20:00 +19°C° 0 mm 3 m/s 763 mmHg 73%
    21:00 +18°C° 0 mm 2 m/s 763 mmHg 77%
    22:00 +17°C° 0 mm 2 m/s 764 mmHg 81%
    23:00 +17°C° 0 mm 2 m/s 763 mmHg 82%

    23 Fevereiro, Domingo

    Tempo Temperatura Precipitação Vento Pressão Humidade
    00:00 +16°C° 0 mm 1 m/s 763 mmHg 84%
    01:00 +16°C° 0 mm 1 m/s 763 mmHg 86%
    02:00 +16°C° 0 mm 1 m/s 763 mmHg 86%
    03:00 +16°C° 0 mm 1 m/s 762 mmHg 87%
    04:00 +15°C° 0 mm 1 m/s 762 mmHg 87%
    05:00 +16°C° 0 mm 1 m/s 763 mmHg 85%
    06:00 +16°C° 0 mm 1 m/s 763 mmHg 83%
    07:00 +18°C° 0 mm 1 m/s 763 mmHg 81%
    08:00 +21°C° 0 mm 1 m/s 763 mmHg 71%
    09:00 +24°C° 0 mm 2 m/s 763 mmHg 60%
    10:00 +27°C° 0 mm 2 m/s 763 mmHg 50%
    11:00 +29°C° 0 mm 3 m/s 762 mmHg 43%
    12:00 +31°C° 0 mm 3 m/s 762 mmHg 35%
    13:00 +34°C° 0 mm 4 m/s 761 mmHg 28%
    14:00 +34°C° 0 mm 3 m/s 761 mmHg 29%
    15:00 +34°C° 0 mm 3 m/s 760 mmHg 30%
    16:00 +34°C° 0 mm 3 m/s 760 mmHg 31%
    17:00 +30°C° 0 mm 3 m/s 760 mmHg 41%
    18:00 +28°C° 0 mm 3 m/s 761 mmHg 50%
    19:00 +25°C° 0 mm 3 m/s 761 mmHg 60%
    20:00 +24°C° 0 mm 3 m/s 762 mmHg 65%
    21:00 +23°C° 0 mm 2 m/s 762 mmHg 69%
    22:00 +21°C° 0 mm 2 m/s 763 mmHg 73%
    23:00 +20°C° 0 mm 2 m/s 763 mmHg 75%

    24 Fevereiro, Segunda-feira

    Tempo Temperatura Precipitação Vento Pressão Humidade
    00:00 +20°C° 0 mm 2 m/s 762 mmHg 76%
    01:00 +20°C° 0 mm 2 m/s 762 mmHg 77%
    02:00 +20°C° 0 mm 1 m/s 762 mmHg 80%
    03:00 +20°C° 0 mm 1 m/s 762 mmHg 82%
    04:00 +19°C° 0 mm 1 m/s 762 mmHg 84%
    05:00 +20°C° 0 mm 1 m/s 762 mmHg 83%
    06:00 +20°C° 0 mm 1 m/s 762 mmHg 82%
    07:00 +20°C° 0 mm 1 m/s 762 mmHg 80%
    08:00 +23°C° 0 mm 1 m/s 763 mmHg 73%
    09:00 +25°C° 0 mm 2 m/s 763 mmHg 65%
    10:00 +27°C° 0 mm 2 m/s 763 mmHg 57%
    11:00 +26°C° 0.8 mm 3 m/s 762 mmHg 62%
    12:00 +25°C° 0.8 mm 4 m/s 762 mmHg 67%
    13:00 +23°C° 0.8 mm 5 m/s 762 mmHg 72%
    14:00 +23°C° 0.1 mm 4 m/s 761 mmHg 71%
    15:00 +24°C° 0.1 mm 3 m/s 761 mmHg 71%
    16:00 +24°C° 0.1 mm 2 m/s 761 mmHg 70%
    17:00 +24°C° 0 mm 2 m/s 761 mmHg 71%
    18:00 +23°C° 0 mm 1 m/s 761 mmHg 73%
    19:00 +23°C° 0 mm 1 m/s 761 mmHg 74%
    20:00 +23°C° 0 mm 1 m/s 761 mmHg 76%
    21:00 +22°C° 0 mm 1 m/s 761 mmHg 77%
    22:00 +22°C° 0 mm 1 m/s 761 mmHg 79%
    23:00 +22°C° 0 mm 1 m/s 761 mmHg 80%

    25 Fevereiro, Terça-feira

    Tempo Temperatura Precipitação Vento Pressão Humidade
    00:00 +21°C° 0 mm 1 m/s 760 mmHg 82%
    01:00 +21°C° 0 mm 1 m/s 760 mmHg 84%
    02:00 +20°C° 0.1 mm 2 m/s 759 mmHg 86%
    03:00 +19°C° 0.1 mm 2 m/s 759 mmHg 87%
    04:00 +19°C° 0.1 mm 2 m/s 759 mmHg 89%
    05:00 +19°C° 0.5 mm 2 m/s 759 mmHg 89%
    06:00 +20°C° 0.5 mm 1 m/s 759 mmHg 89%
    07:00 +20°C° 0.5 mm 1 m/s 759 mmHg 89%
    08:00 +20°C° 0.2 mm 1 m/s 759 mmHg 86%
    09:00 +21°C° 0.2 mm 1 m/s 759 mmHg 83%
    10:00 +22°C° 0.2 mm 1 m/s 759 mmHg 80%
    11:00 +23°C° 0.2 mm 1 m/s 758 mmHg 74%
    12:00 +24°C° 0.2 mm 2 m/s 758 mmHg 69%
    13:00 +25°C° 0.2 mm 3 m/s 757 mmHg 64%
    14:00 +25°C° 0.1 mm 2 m/s 756 mmHg 62%
    15:00 +25°C° 0.1 mm 2 m/s 755 mmHg 60%
    16:00 +26°C° 0.1 mm 2 m/s 755 mmHg 58%
    17:00 +24°C° 0 mm 3 m/s 755 mmHg 61%
    18:00 +22°C° 0 mm 3 m/s 755 mmHg 65%
    19:00 +20°C° 0 mm 4 m/s 755 mmHg 68%
    20:00 +19°C° 0 mm 3 m/s 755 mmHg 69%
    21:00 +19°C° 0 mm 2 m/s 756 mmHg 70%
    22:00 +19°C° 0 mm 1 m/s 756 mmHg 70%
    23:00 +18°C° 0 mm 1 m/s 756 mmHg 71%
    Mostrar mais